GW0648 Weather Reports


time (UTC)temp
C
wind
direction
speed
KPH
gust
KPH
rain 1hr
cm
rain 24hr
cm
rain mn
cm
humidity
%
barometer
mb
20260508214840 17 171 0.0 0.0 0.00 0.00 0.00 56 1011.5
20260508214349 17 171 0.0 0.0 0.00 0.00 0.00 56 1011.5
20260508213842 17 169 0.0 0.0 0.00 0.00 0.00 55 1011.5
20260508213346 17 153 0.0 0.0 0.00 0.00 0.00 57 1011.5
20260508212837 17 153 0.0 0.0 0.00 0.00 0.00 57 1011.5
20260508212345 17 153 0.0 0.0 0.00 0.00 0.00 55 1011.2
20260508211907 18 153 0.0 0.0 0.00 0.00 0.00 55 1011.2
20260508211336 18 159 0.0 0.0 0.00 0.00 0.00 56 1011.2
20260508210844 18 159 0.0 0.0 0.00 0.00 0.00 56 1011.1
20260508210429 18 159 0.0 0.0 0.00 0.00 0.00 56 1011.1
20260508205828 18 154 0.0 0.0 0.00 0.00 0.00 55 1011.1
20260508205334 18 169 0.0 0.0 0.00 0.00 0.00 53 1011.1
20260508204901 18 194 0.0 0.0 0.00 0.00 0.00 55 1011.1
20260508204328 18 195 0.0 0.0 0.00 0.00 0.00 51 1011.1
20260508203836 18 169 0.0 0.0 0.00 0.00 0.00 52 1011.4
20260508203346 18 169 0.0 0.0 0.00 0.00 0.00 52 1011.4
20260508202836 18 169 0.0 0.0 0.00 0.00 0.00 51 1011.4
20260508202349 18 169 0.0 0.0 0.00 0.00 0.00 51 1011.5
20260508201854 18 170 0.0 0.0 0.00 0.00 0.00 50 1011.5
20260508201339 18 167 0.0 0.0 0.00 0.00 0.00 53 1011.5
20260508200828 18 167 0.0 0.0 0.00 0.00 0.00 52 1011.6
20260508200513 18 153 0.0 0.0 0.00 0.00 0.00 53 1011.6
20260508195845 18 153 0.0 0.0 0.00 0.00 0.00 50 1011.6
20260508195328 18 153 0.0 0.0 0.00 0.00 0.00 51 1012.0
20260508194835 17 153 0.0 0.0 0.00 0.00 0.00 52 1012.0
20260508194401 17 153 0.0 0.0 0.00 0.00 0.00 52 1012.0
20260508193831 17 153 0.0 0.0 0.00 0.00 0.00 53 1012.2
20260508193354 17 153 0.0 0.0 0.00 0.00 0.00 52 1012.2
20260508192851 17 153 0.0 0.0 0.00 0.00 0.00 51 1012.2
20260508192337 18 153 0.0 0.0 0.00 0.00 0.00 51 1012.6
20260508191826 18 153 0.0 0.0 0.00 0.00 0.00 48 1012.6
20260508191332 18 153 0.0 0.0 0.00 0.00 0.00 51 1012.6
20260508190842 18 153 0.0 0.0 0.00 0.00 0.00 52 1012.7
20260508190330 17 159 0.0 0.0 0.00 0.00 0.00 54 1012.7
20260508185827 18 169 0.0 0.0 0.00 0.00 0.00 51 1012.7
20260508185329 18 201 0.0 0.0 0.00 0.00 0.00 51 1013.0
20260508184854 18 201 0.0 0.0 0.00 0.00 0.00 51 1013.0
20260508184341 17 284 0.0 0.0 0.00 0.00 0.00 50 1013.0
20260508183828 17 135 0.0 0.0 0.00 0.03 0.00 51 1013.1
20260508183340 17 135 0.0 0.0 0.00 0.03 0.00 53 1013.1
20260508182844 17 135 0.0 0.0 0.00 0.03 0.00 54 1013.1
20260508182335 17 139 0.0 0.0 0.00 0.03 0.00 54 1013.3
20260508181839 17 140 0.0 0.0 0.00 0.03 0.00 52 1013.3
20260508181332 17 144 0.0 0.0 0.00 0.03 0.00 51 1013.3
20260508180900 17 144 0.0 0.0 0.00 0.03 0.00 51 1013.3
20260508180342 17 144 0.0 0.0 0.00 0.03 0.00 50 1013.3
20260508175832 17 144 0.0 0.0 0.00 0.03 0.00 52 1013.3
20260508175334 17 144 0.0 0.0 0.00 0.03 0.00 53 1013.8
20260508174830 16 144 0.0 0.0 0.00 0.03 0.00 55 1013.8
20260508174336 16 144 0.0 0.0 0.00 0.03 0.00 55 1013.8
20260508173901 16 144 0.0 0.0 0.00 0.03 0.00 57 1013.9
20260508173333 16 144 0.0 0.0 0.00 0.03 0.00 56 1013.9
20260508172830 16 172 0.0 0.0 0.00 0.03 0.00 56 1013.9
20260508172353 16 172 0.0 0.0 0.00 0.03 0.00 55 1013.9
20260508171841 16 136 0.0 0.0 0.00 0.03 0.00 56 1013.9
20260508171331 16 136 0.0 0.0 0.00 0.03 0.00 54 1013.9
20260508170840 16 136 0.0 0.0 0.00 0.03 0.00 56 1014.3
20260508170332 16 136 0.0 0.0 0.00 0.03 0.00 55 1014.3
20260508165838 16 146 0.0 0.0 0.00 0.03 0.00 54 1014.3
20260508165331 16 146 0.0 0.0 0.00 0.03 0.00 53 1014.4
20260508164837 16 146 0.0 0.0 0.00 0.03 0.00 54 1014.4
20260508164330 16 146 0.0 0.0 0.00 0.03 0.00 54 1014.4
20260508163838 16 146 0.0 0.0 0.00 0.03 0.00 52 1014.7
20260508163328 16 146 0.0 0.0 0.00 0.03 0.00 52 1014.7
20260508162835 16 140 0.0 0.0 0.00 0.03 0.00 51 1014.7
20260508162400 16 140 0.0 0.0 0.00 0.03 0.00 53 1014.8
20260508161833 16 140 0.0 0.0 0.00 0.03 0.00 53 1014.8
20260508161327 16 140 0.0 0.0 0.00 0.03 0.00 54 1014.8
20260508160830 16 332 0.0 0.0 0.00 0.03 0.00 54 1015.0
20260508160359 16 332 0.0 0.0 0.00 0.03 0.00 56 1015.0
20260508155829 16 332 0.0 0.0 0.00 0.03 0.00 52 1015.0
20260508155358 16 332 0.0 0.0 0.00 0.03 0.00 52 1015.1
20260508154833 16 332 0.0 0.0 0.00 0.03 0.00 52 1015.1
20260508154358 15 332 0.0 0.0 0.00 0.03 0.00 56 1015.1
20260508153830 15 332 0.0 0.0 0.00 0.03 0.00 52 1015.4
20260508153327 15 332 0.0 0.0 0.00 0.03 0.00 54 1015.4
20260508152834 15 332 0.0 0.0 0.00 0.03 0.00 54 1015.4
20260508152405 15 332 0.0 0.0 0.00 0.03 0.00 52 1015.5
20260508151838 15 332 0.0 0.0 0.00 0.03 0.00 53 1015.5
20260508151329 15 332 0.0 0.0 0.00 0.03 0.00 53 1015.5
20260508150855 14 332 0.0 0.0 0.00 0.03 0.00 54 1015.5
20260508150326 14 332 0.0 0.0 0.00 0.03 0.00 54 1015.5
20260508145858 14 332 0.0 0.0 0.00 0.03 0.00 56 1015.5
20260508145326 13 332 0.0 0.0 0.00 0.03 0.00 54 1015.5
20260508144852 13 332 0.0 0.0 0.00 0.03 0.00 55 1015.5
20260508144328 13 332 0.0 0.0 0.00 0.03 0.00 53 1015.5
20260508143852 13 332 0.0 0.0 0.00 0.03 0.00 56 1015.6
20260508143345 13 332 0.0 0.0 0.00 0.03 0.00 60 1015.6
20260508142846 13 332 0.0 0.0 0.00 0.03 0.00 56 1015.6
20260508142343 13 332 0.0 0.0 0.00 0.03 0.00 57 1015.9
20260508141856 12 332 0.0 0.0 0.00 0.03 0.00 56 1015.9
20260508141345 12 332 0.0 0.0 0.00 0.03 0.00 60 1015.9
20260508140854 12 332 0.0 0.0 0.00 0.03 0.00 64 1015.9
20260508140331 12 332 0.0 0.0 0.00 0.03 0.00 60 1015.9
20260508135900 12 332 0.0 0.0 0.00 0.03 0.00 67 1015.9
20260508135331 12 332 0.0 0.0 0.00 0.03 0.00 69 1016.0
20260508134837 11 331 0.0 0.0 0.00 0.03 0.00 77 1016.0
20260508134328 11 331 0.0 0.0 0.00 0.03 0.00 83 1016.0
20260508133840 11 331 0.0 0.0 0.00 0.05 0.00 83 1016.0
20260508133357 11 331 0.0 0.0 0.00 0.05 0.00 86 1016.0
20260508132844 11 331 0.0 0.0 0.00 0.05 0.00 89 1016.0
20260508132333 10 331 0.0 0.0 0.00 0.05 0.00 91 1015.7
20260508131902 10 331 0.0 0.0 0.00 0.05 0.00 92 1015.7
20260508131345 10 331 0.0 0.0 0.00 0.05 0.00 93 1015.7
20260508130914 10 331 0.0 0.0 0.00 0.05 0.00 94 1015.6
20260508130330 10 331 0.0 0.0 0.00 0.05 0.00 97 1015.6
20260508125855 10 331 0.0 0.0 0.00 0.05 0.00 98 1015.6
20260508125328 9 331 0.0 0.0 0.00 0.05 0.00 98 1015.5
20260508124854 9 331 0.0 0.0 0.00 0.05 0.00 98 1015.5
20260508124407 8 331 0.0 0.0 0.00 0.05 0.00 98 1015.5
20260508123837 8 331 0.0 0.0 0.00 0.18 0.00 98 1015.5
20260508123346 8 331 0.0 0.0 0.00 0.18 0.00 98 1015.5
20260508122853 8 331 0.0 0.0 0.00 0.18 0.00 98 1015.5
20260508122359 8 331 0.0 0.0 0.00 0.18 0.00 98 1015.5
20260508121852 7 331 0.0 0.0 0.00 0.18 0.00 98 1015.5
20260508121358 7 331 0.0 0.0 0.00 0.18 0.00 98 1015.5
20260508120842 7 331 0.0 0.0 0.00 0.18 0.00 97 1015.4
20260508120339 7 331 0.0 0.0 0.00 0.18 0.00 97 1015.4
20260508115843 7 331 0.0 0.0 0.00 0.18 0.00 97 1015.4
20260508115339 7 331 0.0 0.0 0.00 0.18 0.00 97 1015.1
20260508114850 7 331 0.0 0.0 0.00 0.18 0.00 97 1015.1
20260508114338 6 331 0.0 0.0 0.00 0.18 0.00 97 1015.1
20260508113846 6 331 0.0 0.0 0.00 0.51 0.00 97 1014.9
20260508113359 6 331 0.0 0.0 0.00 0.51 0.00 96 1014.9
20260508112826 6 331 0.0 0.0 0.00 0.51 0.00 96 1014.9
20260508112414 6 331 0.0 0.0 0.00 0.51 0.00 96 1014.5
20260508111918 6 331 0.0 0.0 0.00 0.51 0.00 96 1014.5
20260508111331 6 331 0.0 0.0 0.00 0.51 0.00 96 1014.5
20260508110855 6 331 0.0 0.0 0.00 0.51 0.00 96 1014.4
20260508110349 6 331 0.0 0.0 0.00 0.51 0.00 96 1014.4
20260508105835 6 331 0.0 0.0 0.00 0.51 0.00 96 1014.4
20260508105345 6 331 0.0 0.0 0.00 0.51 0.00 96 1014.3
20260508104833 6 331 0.0 0.0 0.00 0.51 0.00 96 1014.3
20260508104327 6 331 0.0 0.0 0.00 0.51 0.00 96 1014.3
20260508103856 6 331 0.0 0.0 0.00 0.53 0.00 96 1013.9
20260508103329 6 331 0.0 0.0 0.00 0.53 0.00 96 1013.9
20260508102836 6 331 0.0 0.0 0.00 0.53 0.00 96 1013.9
20260508102406 6 331 0.0 0.0 0.00 0.53 0.00 96 1013.8
20260508101834 6 331 0.0 0.0 0.00 0.53 0.00 96 1013.8
20260508101347 6 331 0.0 0.0 0.00 0.53 0.00 96 1013.8
20260508100912 6 331 0.0 0.0 0.00 0.53 0.00 96 1013.5
20260508100400 6 331 0.0 0.0 0.00 0.53 0.00 96 1013.5
20260508095828 6 331 0.0 0.0 0.00 0.53 0.00 96 1013.5
20260508095417 6 331 0.0 0.0 0.00 0.53 0.00 96 1013.3
20260508094830 6 331 0.0 0.0 0.00 0.53 0.00 96 1013.3
20260508094356 7 331 0.0 0.0 0.00 0.53 0.00 96 1013.3
20260508093830 7 331 0.0 0.0 0.00 0.53 0.00 96 1013.3
20260508093344 7 331 0.0 0.0 0.00 0.53 0.00 96 1013.3
20260508092834 7 331 0.0 0.0 0.00 0.53 0.00 96 1013.3
20260508092343 7 331 0.0 0.0 0.00 0.53 0.00 96 1013.3
20260508091840 7 331 0.0 0.0 0.00 0.53 0.00 96 1013.3
20260508091329 7 331 0.0 0.0 0.00 0.53 0.00 96 1013.3
20260508090837 7 331 0.0 0.0 0.00 0.53 0.00 96 1013.3
20260508090331 7 331 0.0 0.0 0.00 0.53 0.00 96 1013.3
20260508085838 7 331 0.0 0.0 0.00 0.53 0.00 96 1013.3
20260508085335 7 331 0.0 0.0 0.00 0.53 0.00 96 1013.3
20260508084838 7 331 0.0 0.0 0.00 0.53 0.00 96 1013.3
20260508084332 7 331 0.0 0.0 0.00 0.53 0.00 96 1013.3
20260508083837 7 331 0.0 0.0 0.00 0.66 0.00 96 1013.2
20260508083331 7 331 0.0 0.0 0.00 0.66 0.00 96 1013.2
20260508082839 7 331 0.0 0.0 0.00 0.66 0.00 96 1013.2
20260508082328 7 331 0.0 0.0 0.00 0.66 0.00 96 1012.9
20260508081857 7 331 0.0 0.0 0.00 0.66 0.00 96 1012.9
20260508081342 7 331 0.0 0.0 0.00 0.66 0.00 96 1012.9
20260508080832 7 331 0.0 0.0 0.00 0.66 0.00 96 1012.7
20260508080342 7 331 0.0 0.0 0.00 0.66 0.00 96 1012.7
20260508075827 7 331 0.0 0.0 0.00 0.66 0.00 96 1012.7
20260508075336 7 331 0.0 0.0 0.00 0.66 0.00 96 1012.9
20260508074900 7 331 0.0 0.0 0.00 0.66 0.00 96 1012.9
20260508074331 7 331 0.0 0.0 0.00 0.66 0.00 96 1012.9
20260508073839 7 331 0.0 0.0 0.00 0.66 0.00 96 1012.7
20260508073332 7 331 0.0 0.0 0.00 0.66 0.00 96 1012.7
20260508072837 7 331 0.0 0.0 0.00 0.66 0.00 96 1012.7
20260508072330 7 331 0.0 0.0 0.00 0.66 0.00 96 1012.7
20260508071838 7 331 0.0 0.0 0.00 0.66 0.00 96 1012.7
20260508071332 7 331 0.0 0.0 0.00 0.66 0.00 95 1012.7
20260508070837 8 331 0.0 0.0 0.00 0.66 0.00 95 1012.7
20260508070337 8 331 0.0 0.0 0.00 0.66 0.00 95 1012.7
20260508065848 8 331 0.0 0.0 0.00 0.66 0.00 95 1012.7
20260508065356 8 331 0.0 0.0 0.00 0.66 0.00 95 1012.4
20260508064828 8 331 0.0 0.0 0.00 0.66 0.00 96 1012.4
20260508064417 8 331 0.0 0.0 0.00 0.66 0.00 96 1012.4
20260508063831 8 331 0.0 0.0 0.00 0.71 0.00 96 1012.6
20260508063341 8 331 0.0 0.0 0.00 0.71 0.00 96 1012.6
20260508062850 8 331 0.0 0.0 0.00 0.71 0.00 96 1012.6
20260508062337 8 331 0.0 0.0 0.00 0.71 0.00 96 1012.6
20260508061828 8 331 0.0 0.0 0.00 0.71 0.00 96 1012.6
20260508061357 8 331 0.0 0.0 0.00 0.71 0.00 96 1012.6
20260508060844 8 331 0.0 0.0 0.00 0.71 0.00 96 1012.3
20260508060356 8 331 0.0 0.0 0.00 0.71 0.00 96 1012.3
20260508055904 8 331 0.0 0.0 0.00 0.71 0.00 96 1012.3
20260508055348 8 331 0.0 0.0 0.00 0.71 0.00 95 1012.6
20260508054842 8 331 0.0 0.0 0.00 0.71 0.00 95 1012.6
20260508054347 8 331 0.0 0.0 0.00 0.71 0.00 95 1012.6
20260508053839 8 331 0.0 0.0 0.00 1.07 0.00 95 1012.6
20260508053349 8 331 0.0 0.0 0.00 1.07 0.00 95 1012.6
20260508052841 8 331 0.0 0.0 0.00 1.07 0.00 95 1012.6
20260508052354 8 331 0.0 0.0 0.00 1.07 0.00 94 1012.6
20260508051827 8 331 0.0 0.0 0.00 1.07 0.00 94 1012.6
20260508051352 8 331 0.0 0.0 0.00 1.07 0.00 94 1012.6
20260508050903 8 331 0.0 0.0 0.00 1.07 0.00 94 1012.4
20260508050339 8 331 0.0 0.0 0.00 1.07 0.00 94 1012.4
20260508045846 8 331 0.0 0.0 0.00 1.07 0.00 94 1012.4
20260508045343 8 331 0.0 0.0 0.00 1.07 0.00 94 1012.3
20260508044854 8 331 0.0 0.0 0.00 1.07 0.00 94 1012.3
20260508044327 8 331 0.0 0.0 0.00 1.07 0.00 94 1012.3
20260508043834 8 331 0.0 0.0 0.00 1.88 0.00 94 1012.2
20260508043329 8 331 0.0 0.0 0.00 1.88 0.00 94 1012.2
20260508042841 8 331 0.0 0.0 0.00 1.88 0.00 93 1012.2
20260508042329 8 331 0.0 0.0 0.00 1.88 0.00 93 1012.2
20260508041838 8 331 0.0 0.0 0.00 1.88 0.00 93 1012.2
20260508041327 9 331 0.0 0.0 0.00 1.88 0.00 93 1012.2
20260508040838 9 331 0.0 0.0 0.00 1.88 0.00 93 1012.2
20260508040332 9 331 0.0 0.0 0.00 1.88 0.00 93 1012.2
20260508035837 9 331 0.0 0.0 0.00 1.88 0.00 93 1012.2
20260508035334 9 331 0.0 0.0 0.00 1.88 0.00 93 1012.2
20260508034843 9 331 0.0 0.0 0.00 1.88 0.00 93 1012.2
20260508034334 9 331 0.0 0.0 0.00 1.88 0.00 93 1012.2
20260508033845 9 331 0.0 0.0 0.00 1.88 1.88 93 1012.3
20260508033338 9 331 0.0 0.0 0.00 1.88 1.88 92 1012.3
20260508032845 9 331 0.0 0.0 0.00 1.88 1.88 92 1012.3
20260508032338 10 331 0.0 0.0 0.00 1.88 1.88 92 1012.2
20260508031841 10 331 0.0 0.0 0.00 1.88 1.88 92 1012.2
20260508031336 10 331 0.0 0.0 0.00 1.88 1.88 91 1012.2
20260508030845 10 331 0.0 0.0 0.00 1.88 1.88 91 1012.2
20260508030359 10 331 0.0 0.0 0.00 1.88 1.88 90 1012.2
20260508025846 10 331 0.0 0.0 0.00 1.88 1.88 90 1012.2
20260508025338 10 331 0.0 0.0 0.00 1.88 1.88 90 1012.1
20260508024826 10 331 0.0 0.0 0.00 1.88 1.88 90 1012.1
20260508024334 10 331 0.0 0.0 0.00 1.88 1.88 90 1012.1
20260508023903 10 331 0.0 0.0 0.00 2.06 1.88 89 1011.6
20260508023356 10 331 0.0 0.0 0.00 2.06 1.88 89 1011.6
20260508022844 10 331 0.0 0.0 0.00 2.06 1.88 89 1011.6
20260508022350 10 331 0.0 0.0 0.00 2.06 1.88 88 1011.6
20260508021838 10 331 0.0 0.0 0.00 2.06 1.88 88 1011.6
20260508021348 10 331 0.0 0.0 0.00 2.06 1.88 88 1011.6
20260508020845 10 331 0.0 0.0 0.00 2.06 1.88 88 1011.4
20260508020349 10 331 0.0 0.0 0.00 2.06 1.88 88 1011.4
20260508015842 10 331 0.0 0.0 0.00 2.06 1.88 88 1011.4
20260508015352 10 331 0.0 0.0 0.00 2.06 1.88 87 1011.2
20260508014840 10 331 0.0 0.0 0.00 2.06 1.88 86 1011.2
20260508014349 11 331 0.0 0.0 0.00 2.06 1.88 86 1011.2
20260508013837 11 331 0.0 0.0 0.00 2.08 1.88 85 1011.0
20260508013352 11 331 0.0 0.0 0.00 2.08 1.88 84 1011.0
20260508012849 11 331 0.0 0.0 0.00 2.08 1.88 83 1011.0
20260508012334 11 331 0.0 0.0 0.00 2.08 1.88 83 1010.9
20260508011904 11 331 0.0 0.0 0.00 2.08 1.88 83 1010.9
20260508011334 11 331 0.0 0.0 0.00 2.08 1.88 81 1010.9
20260508010829 11 331 0.0 0.0 0.00 2.08 1.88 81 1010.9
20260508010355 11 331 0.0 0.0 0.00 2.08 1.88 81 1010.9
20260508005838 12 331 0.0 0.0 0.00 2.08 1.88 80 1010.9
20260508005447 12 331 0.0 0.0 0.00 2.08 1.88 80 1010.5
20260508004831 12 331 0.0 0.0 0.00 2.08 1.88 78 1010.5
20260508004359 12 331 0.0 0.0 0.00 2.08 1.88 80 1010.5
20260508003832 12 331 0.0 0.0 0.00 2.39 1.88 79 1010.5
20260508003356 12 331 0.0 0.0 0.00 2.39 1.88 78 1010.5
20260508002828 12 331 0.0 0.0 0.00 2.39 1.88 79 1010.5
20260508002355 12 331 0.0 0.0 0.00 2.39 1.88 80 1010.4
20260508001827 12 331 0.0 0.0 0.00 2.39 1.88 80 1010.4
20260508001355 12 331 0.0 0.0 0.00 2.39 1.88 80 1010.4
20260508000844 12 331 0.0 0.0 0.00 2.39 1.88 78 1010.0
20260508000353 13 331 0.0 0.0 0.00 2.39 1.88 78 1010.0
20260507235829 13 331 0.0 0.0 0.00 2.39 1.88 76 1010.0
20260507235353 13 331 0.0 0.0 0.00 2.39 1.88 76 1010.0
20260507234829 13 331 0.0 0.0 0.00 2.39 1.88 76 1010.0
20260507234352 13 331 0.0 0.0 0.00 2.39 1.88 76 1010.0
20260507233846 13 331 0.0 0.0 0.00 2.62 1.88 76 1010.0
20260507233353 13 5 0.0 0.0 0.00 2.62 1.88 74 1010.0
20260507232907 13 5 0.0 0.0 0.00 2.62 1.88 74 1010.0
20260507232330 13 5 0.0 0.0 0.00 2.62 1.88 75 1009.8
20260507231839 13 5 0.0 0.0 0.00 2.62 1.88 74 1009.8
20260507231330 13 5 0.0 0.0 0.00 2.62 1.88 76 1009.8
20260507230845 13 5 0.0 0.0 0.00 2.62 1.88 75 1010.0
20260507230332 13 350 0.0 0.0 0.00 2.62 1.88 74 1010.0
20260507225844 13 308 0.0 0.0 0.00 2.62 1.88 75 1010.0
20260507225334 14 338 0.0 0.0 0.00 2.62 1.88 75 1009.9
20260507224843 14 76 0.0 0.0 0.00 2.62 1.88 74 1009.9
20260507224332 14 70 0.0 0.0 0.00 2.62 1.88 74 1009.9
20260507223838 14 70 0.0 0.0 0.00 2.79 1.88 73 1009.5
20260507223347 14 70 0.0 0.0 0.00 2.79 1.88 73 1009.5
20260507222838 14 70 0.0 0.0 0.00 2.79 1.88 72 1009.5
20260507222344 15 70 0.0 0.0 0.00 2.79 1.88 72 1009.2
20260507221835 15 63 0.0 0.0 0.00 2.79 1.88 72 1009.2
20260507221340 15 57 0.0 0.0 0.00 2.79 1.88 72 1009.2
20260507220830 15 58 0.0 0.0 0.00 2.79 1.88 73 1008.8
20260507220336 15 100 0.0 0.0 0.00 2.79 1.88 73 1008.8
20260507215901 15 41 0.0 0.0 0.00 2.79 1.88 74 1008.8
20260507215333 15 41 0.0 0.0 0.00 2.79 1.88 72 1008.4